| time (UTC) | temp C | wind direction | speed KPH | gust KPH | rain 1hr cm | rain 24hr cm | rain mn cm | humidity % | barometer mb |
| 20260506221520 | 6 | 0.0 | 0.0 | 0.00 | 0.25 | 0.25 | 94 | 1007.8 | |
| 20260506220019 | 6 | 0.0 | 0.0 | 0.00 | 0.25 | 0.25 | 94 | 1007.6 | |
| 20260506214517 | 7 | 0.0 | 0.0 | 0.00 | 0.25 | 0.25 | 94 | 1007.5 | |
| 20260506213016 | 7 | 0.0 | 0.0 | 0.00 | 0.25 | 0.25 | 94 | 1007.5 | |
| 20260506211512 | 7 | 0.0 | 0.0 | 0.00 | 0.25 | 0.25 | 94 | 1007.1 | |
| 20260506210022 | 7 | 0.0 | 0.0 | 0.03 | 0.25 | 0.25 | 94 | 1006.7 | |
| 20260506204510 | 7 | 0.0 | 0.0 | 0.03 | 0.33 | 0.25 | 94 | 1006.4 | |
| 20260506203010 | 7 | 0.0 | 0.0 | 0.03 | 0.33 | 0.25 | 94 | 1006.1 | |
| 20260506201510 | 8 | 0.0 | 0.0 | 0.03 | 0.33 | 0.25 | 94 | 1005.5 | |
| 20260506200006 | 8 | 0.0 | 0.0 | 0.00 | 0.30 | 0.23 | 94 | 1005.7 | |
| 20260506194506 | 8 | 0.0 | 0.0 | 0.00 | 0.38 | 0.23 | 94 | 1005.5 | |
| 20260506193001 | 8 | 0.0 | 0.0 | 0.00 | 0.38 | 0.23 | 94 | 1005.4 | |
| 20260506191600 | 8 | 0.0 | 0.0 | 0.00 | 0.38 | 0.23 | 93 | 1005.3 | |
| 20260506190058 | 9 | 0.0 | 0.0 | 0.00 | 0.38 | 0.23 | 93 | 1004.9 | |
| 20260506184555 | 10 | 0.0 | 0.0 | 0.00 | 0.38 | 0.23 | 91 | 1004.7 | |
| 20260506183049 | 10 | 0.0 | 0.0 | 0.00 | 0.38 | 0.23 | 89 | 1004.8 | |
| 20260506181554 | 12 | 0.0 | 0.0 | 0.00 | 0.38 | 0.23 | 88 | 1004.4 | |
| 20260506180050 | 13 | 0.0 | 0.0 | 0.03 | 0.38 | 0.23 | 94 | 1003.9 | |
| 20260506174546 | 13 | 0.0 | 0.0 | 0.03 | 0.38 | 0.23 | 94 | 1003.9 | |
| 20260506173048 | 13 | 0.0 | 0.0 | 0.03 | 0.38 | 0.23 | 94 | 1003.8 | |
| 20260506171545 | 13 | 0.0 | 0.0 | 0.08 | 0.38 | 0.23 | 95 | 1003.8 | |
| 20260506170052 | 13 | 0.0 | 0.0 | 0.05 | 0.36 | 0.20 | 95 | 1003.9 | |
| 20260506164555 | 13 | 0.0 | 0.0 | 0.08 | 0.36 | 0.20 | 95 | 1004.0 | |
| 20260506163045 | 12 | 0.0 | 0.0 | 0.10 | 0.36 | 0.20 | 95 | 1003.9 | |
| 20260506161538 | 12 | 0.0 | 0.0 | 0.13 | 0.30 | 0.15 | 95 | 1004.2 | |
| 20260506160038 | 12 | 0.0 | 0.0 | 0.15 | 0.30 | 0.15 | 95 | 1004.2 | |
| 20260506154541 | 12 | 0.0 | 0.0 | 0.13 | 0.28 | 0.13 | 95 | 1004.1 | |
| 20260506153036 | 12 | 0.0 | 0.0 | 0.10 | 0.25 | 0.10 | 94 | 1004.2 | |
| 20260506151539 | 12 | 0.0 | 0.0 | 0.03 | 0.18 | 0.03 | 95 | 1004.3 | |
| 20260506150041 | -17 | 0.0 | 0.0 | 0.00 | 0.15 | 0.00 | 1004.0 | ||
| 20260506144531 | -17 | 0.0 | 0.0 | 0.00 | 0.15 | 0.00 | 1003.9 | ||
| 20260506143026 | -17 | 0.0 | 0.0 | 0.00 | 0.15 | 0.00 | 1004.0 | ||
| 20260506141529 | -17 | 0.0 | 0.0 | 0.00 | 0.15 | 0.00 | 1004.1 | ||
| 20260506140017 | -17 | 0.0 | 0.0 | 0.00 | 0.15 | 0.00 | 1004.0 | ||
| 20260506134513 | -17 | 0.0 | 0.0 | 0.00 | 0.15 | 0.00 | 1004.2 | ||
| 20260506133009 | -17 | 0.0 | 0.0 | 0.00 | 0.15 | 0.00 | 1004.6 | ||
| 20260506131617 | -17 | 0.0 | 0.0 | 0.00 | 0.15 | 0.00 | 1004.8 | ||
| 20260506130002 | -17 | 0.0 | 0.0 | 0.00 | 0.15 | 0.00 | 1005.0 | ||
| 20260506124557 | -17 | 0.0 | 0.0 | 0.00 | 0.15 | 0.00 | 1005.2 | ||
| 20260506123056 | -17 | 0.0 | 0.0 | 0.00 | 0.15 | 0.00 | 1004.8 | ||
| 20260506121555 | -17 | 0.0 | 0.0 | 0.00 | 0.15 | 0.00 | 1004.8 | ||
| 20260506120058 | -17 | 0.0 | 0.0 | 0.00 | 0.15 | 0.00 | 1004.8 | ||
| 20260506114541 | -17 | 0.0 | 0.0 | 0.00 | 0.15 | 0.00 | 1005.1 | ||
| 20260506113037 | -17 | 0.0 | 0.0 | 0.00 | 0.15 | 0.00 | 1005.0 | ||
| 20260506111533 | -17 | 0.0 | 0.0 | 0.00 | 0.15 | 0.00 | 1005.0 | ||
| 20260506110030 | -17 | 0.0 | 0.0 | 0.00 | 0.15 | 0.00 | 1005.1 | ||
| 20260506104536 | -17 | 0.0 | 0.0 | 0.00 | 0.15 | 0.00 | 1005.1 | ||
| 20260506103036 | -17 | 0.0 | 0.0 | 0.00 | 0.15 | 0.00 | 1005.1 | ||
| 20260506101516 | -17 | 0.0 | 0.0 | 0.00 | 0.15 | 0.00 | 1004.8 | ||
| 20260506100012 | -17 | 0.0 | 0.0 | 0.00 | 0.15 | 0.00 | 1004.7 | ||
| 20260506094511 | -17 | 0.0 | 0.0 | 0.00 | 0.15 | 0.00 | 1004.6 | ||
| 20260506093003 | -17 | 0.0 | 0.0 | 0.00 | 0.15 | 0.00 | 1004.6 | ||
| 20260506091602 | -17 | 0.0 | 0.0 | 0.00 | 0.15 | 0.00 | 1004.8 | ||
| 20260506090104 | 11 | 0.0 | 0.0 | 0.00 | 0.15 | 0.00 | 92 | 1004.9 | |
| 20260506084629 | 11 | 0.0 | 0.0 | 0.00 | 0.15 | 0.00 | 92 | 1005.2 | |
| 20260506083056 | 11 | 0.0 | 0.0 | 0.00 | 0.15 | 0.00 | 93 | 1005.4 | |
| 20260506081559 | 11 | 0.0 | 0.0 | 0.00 | 0.15 | 0.00 | 93 | 1005.4 | |
| 20260506073051 | 11 | 0.0 | 0.0 | 0.00 | 0.15 | 0.00 | 92 | 1004.9 | |
| 20260506071550 | 11 | 0.0 | 0.0 | 0.00 | 0.15 | 0.00 | 91 | 1005.0 | |
| 20260506061543 | 11 | 0.0 | 0.0 | 0.00 | 0.15 | 0.00 | 90 | 1005.7 | |
| 20260506044537 | 12 | 0.0 | 0.0 | 0.00 | 0.15 | 0.00 | 87 | 1006.8 | |
| 20260506043030 | 12 | 0.0 | 0.0 | 0.00 | 0.15 | 0.00 | 87 | 1006.7 | |
| 20260506041529 | 12 | 0.0 | 0.0 | 0.00 | 0.15 | 0.00 | 86 | 1006.9 | |
| 20260506040032 | 12 | 0.0 | 0.0 | 0.00 | 0.15 | 0.00 | 85 | 1007.1 | |
| 20260506034524 | 12 | 0.0 | 0.0 | 0.00 | 0.15 | 0.15 | 85 | 1007.4 | |
| 20260506033021 | 13 | 0.0 | 0.0 | 0.00 | 0.15 | 0.15 | 86 | 1007.3 | |
| 20260506031521 | 13 | 0.0 | 0.0 | 0.00 | 0.15 | 0.15 | 86 | 1007.2 | |
| 20260506030022 | 13 | 0.0 | 0.0 | 0.00 | 0.15 | 0.15 | 86 | 1007.1 | |
| 20260506024520 | 14 | 0.0 | 0.0 | 0.00 | 0.15 | 0.15 | 85 | 1007.2 | |
| 20260506023033 | 14 | 0.0 | 0.0 | 0.00 | 0.15 | 0.15 | 84 | 1007.1 | |
| 20260506021530 | 15 | 0.0 | 0.0 | 0.00 | 0.15 | 0.15 | 83 | 1006.8 | |
| 20260506020015 | 15 | 0.0 | 0.0 | 0.00 | 0.15 | 0.15 | 82 | 1006.7 | |
| 20260506014518 | 15 | 0.0 | 0.0 | 0.00 | 0.15 | 0.15 | 80 | 1006.6 | |
| 20260506013015 | 15 | 0.0 | 0.0 | 0.00 | 0.15 | 0.15 | 80 | 1006.4 | |
| 20260506011513 | 15 | 0.0 | 0.0 | 0.00 | 0.15 | 0.15 | 82 | 1006.3 | |
| 20260506010014 | 15 | 0.0 | 0.0 | 0.00 | 0.15 | 0.15 | 82 | 1006.1 | |
| 20260506004513 | 15 | 0.0 | 0.0 | 0.00 | 0.15 | 0.15 | 83 | 1005.8 | |
| 20260506003013 | 15 | 0.0 | 0.0 | 0.00 | 0.15 | 0.15 | 82 | 1005.9 | |
| 20260506001510 | 15 | 0.0 | 0.0 | 0.00 | 0.15 | 0.15 | 81 | 1005.6 | |
| 20260506000009 | 15 | 0.0 | 0.0 | 0.00 | 0.15 | 0.15 | 79 | 1005.5 | |
| 20260505234513 | 16 | 0.0 | 0.0 | 0.00 | 0.15 | 0.15 | 79 | 1005.6 | |
| 20260505233008 | 16 | 0.0 | 0.0 | 0.00 | 0.15 | 0.15 | 80 | 1005.3 | |
| 20260505231512 | 16 | 0.0 | 0.0 | 0.00 | 0.15 | 0.15 | 82 | 1005.2 | |
| 20260505230011 | 16 | 0.0 | 0.0 | 0.00 | 0.15 | 0.15 | 83 | 1005.1 | |
| 20260505224508 | 16 | 0.0 | 0.0 | 0.00 | 0.15 | 0.15 | 83 | 1005.0 | |
| 20260505223005 | 16 | 0.0 | 0.0 | 0.00 | 0.15 | 0.15 | 83 | 1005.1 |